Year,Month,Day,Hour,Minute,Value (Times are PST for temperature in C)
2012,09,12,00,00,8.80
2012,09,12,00,01,8.80
2012,09,12,00,02,8.70
2012,09,12,00,03,8.70
2012,09,12,00,04,8.70
2012,09,12,00,05,8.70
2012,09,12,00,06,8.70
2012,09,12,00,07,8.70
2012,09,12,00,08,8.70
2012,09,12,00,09,8.70
2012,09,12,00,10,8.70
2012,09,12,00,11,8.70
2012,09,12,00,12,8.60
2012,09,12,00,13,8.60
2012,09,12,00,14,8.60
2012,09,12,00,15,8.60
2012,09,12,00,16,8.60
2012,09,12,00,17,8.50
2012,09,12,00,18,8.50
2012,09,12,00,19,8.50
2012,09,12,00,20,8.40
2012,09,12,00,21,8.40
2012,09,12,00,22,8.40
2012,09,12,00,23,8.40
2012,09,12,00,24,8.30
2012,09,12,00,25,8.30
2012,09,12,00,26,8.30
2012,09,12,00,27,8.20
2012,09,12,00,28,8.20
2012,09,12,00,29,8.20
2012,09,12,00,30,8.20
2012,09,12,00,31,8.20
2012,09,12,00,32,8.20
2012,09,12,00,33,8.20
2012,09,12,00,34,8.20
2012,09,12,00,35,8.20
2012,09,12,00,36,8.20
2012,09,12,00,37,8.20
2012,09,12,00,38,8.20
2012,09,12,00,39,8.20
2012,09,12,00,40,8.20
2012,09,12,00,41,8.10
2012,09,12,00,42,8.10
2012,09,12,00,43,8.10
2012,09,12,00,44,8.00
2012,09,12,00,45,8.00
2012,09,12,00,46,8.00
2012,09,12,00,47,8.00
2012,09,12,00,48,8.00
2012,09,12,00,49,7.90
2012,09,12,00,50,7.90
2012,09,12,00,51,7.90
2012,09,12,00,52,7.90
2012,09,12,00,53,7.80
2012,09,12,00,54,7.80
2012,09,12,00,55,7.80
2012,09,12,00,56,7.80
2012,09,12,00,57,7.80
2012,09,12,00,58,7.90
2012,09,12,00,59,7.80
2012,09,12,01,00,7.80
2012,09,12,01,01,7.80
2012,09,12,01,02,7.80
2012,09,12,01,03,7.70
2012,09,12,01,04,7.70
2012,09,12,01,05,7.60
2012,09,12,01,06,7.60
2012,09,12,01,07,7.60
2012,09,12,01,08,7.50
2012,09,12,01,09,7.60
2012,09,12,01,10,7.60
2012,09,12,01,11,7.50
2012,09,12,01,12,7.50
2012,09,12,01,13,7.50
2012,09,12,01,14,7.50
2012,09,12,01,15,7.40
2012,09,12,01,16,7.40
2012,09,12,01,17,7.40
2012,09,12,01,18,7.40
2012,09,12,01,19,7.40
2012,09,12,01,20,7.40
2012,09,12,01,21,7.40
2012,09,12,01,22,7.40
2012,09,12,01,23,7.40
2012,09,12,01,24,7.40
2012,09,12,01,25,7.40
2012,09,12,01,26,7.40
2012,09,12,01,27,7.40
2012,09,12,01,28,7.40
2012,09,12,01,29,7.40
2012,09,12,01,30,7.40
2012,09,12,01,31,7.30
2012,09,12,01,32,7.30
2012,09,12,01,33,7.30
2012,09,12,01,34,7.30
2012,09,12,01,35,7.30
2012,09,12,01,36,7.30
2012,09,12,01,37,7.30
2012,09,12,01,38,7.30
2012,09,12,01,39,7.30
2012,09,12,01,40,7.30
2012,09,12,01,41,7.30
2012,09,12,01,42,7.30
2012,09,12,01,43,7.20
2012,09,12,01,44,7.20
2012,09,12,01,45,7.20
2012,09,12,01,46,7.20
2012,09,12,01,47,7.20
2012,09,12,01,48,7.20
2012,09,12,01,49,7.10
2012,09,12,01,50,7.10
2012,09,12,01,51,7.10
2012,09,12,01,52,7.10
2012,09,12,01,53,7.10
2012,09,12,01,54,7.10
2012,09,12,01,55,7.10
2012,09,12,01,56,7.10
2012,09,12,01,57,7.00
2012,09,12,01,58,7.00
2012,09,12,01,59,7.00
2012,09,12,02,00,7.00
2012,09,12,02,01,7.00
2012,09,12,02,02,7.00
2012,09,12,02,03,7.00
2012,09,12,02,04,7.00
2012,09,12,02,05,7.00
2012,09,12,02,06,7.00
2012,09,12,02,07,7.00
2012,09,12,02,08,6.90
2012,09,12,02,09,6.90
2012,09,12,02,10,6.90
2012,09,12,02,11,6.90
2012,09,12,02,12,6.90
2012,09,12,02,13,6.90
2012,09,12,02,14,6.90
2012,09,12,02,15,6.90
2012,09,12,02,16,7.00
2012,09,12,02,17,7.00
2012,09,12,02,18,7.00
2012,09,12,02,19,7.00
2012,09,12,02,20,7.00
2012,09,12,02,21,7.00
2012,09,12,02,22,7.00
2012,09,12,02,23,7.00
2012,09,12,02,24,7.00
2012,09,12,02,25,6.90
2012,09,12,02,26,6.90
2012,09,12,02,27,6.90
2012,09,12,02,28,6.90
2012,09,12,02,29,6.80
2012,09,12,02,30,6.80
2012,09,12,02,31,6.80
2012,09,12,02,32,6.80
2012,09,12,02,33,6.80
2012,09,12,02,34,6.90
2012,09,12,02,35,6.90
2012,09,12,02,36,6.80
2012,09,12,02,37,6.80
2012,09,12,02,38,6.80
2012,09,12,02,39,6.80
2012,09,12,02,40,6.80
2012,09,12,02,41,6.80
2012,09,12,02,42,6.70
2012,09,12,02,43,6.70
2012,09,12,02,44,6.70
2012,09,12,02,45,6.70
2012,09,12,02,46,6.70
2012,09,12,02,47,6.70
2012,09,12,02,48,6.70
2012,09,12,02,49,6.70
2012,09,12,02,50,6.70
2012,09,12,02,51,6.70
2012,09,12,02,52,6.70
2012,09,12,02,53,6.70
2012,09,12,02,54,6.60
2012,09,12,02,55,6.60
2012,09,12,02,56,6.60
2012,09,12,02,57,6.60
2012,09,12,02,58,6.60
2012,09,12,02,59,6.50
2012,09,12,03,00,6.40
2012,09,12,03,01,6.40
2012,09,12,03,02,6.50
2012,09,12,03,03,6.50
2012,09,12,03,04,6.40
2012,09,12,03,05,6.40
2012,09,12,03,06,6.40
2012,09,12,03,07,6.40
2012,09,12,03,08,6.40
2012,09,12,03,09,6.40
2012,09,12,03,10,6.40
2012,09,12,03,11,6.40
2012,09,12,03,12,6.40
2012,09,12,03,13,6.40
2012,09,12,03,14,6.40
2012,09,12,03,15,6.40
2012,09,12,03,16,6.40
2012,09,12,03,17,6.40
2012,09,12,03,18,6.40
2012,09,12,03,19,6.30
2012,09,12,03,20,6.30
2012,09,12,03,21,6.30
2012,09,12,03,22,6.30
2012,09,12,03,23,6.20
2012,09,12,03,24,6.20
2012,09,12,03,25,6.20
2012,09,12,03,26,6.20
2012,09,12,03,27,6.20
2012,09,12,03,28,6.20
2012,09,12,03,29,6.20
2012,09,12,03,30,6.20
2012,09,12,03,31,6.20
2012,09,12,03,32,6.20
2012,09,12,03,33,6.20
2012,09,12,03,34,6.20
2012,09,12,03,35,6.20
2012,09,12,03,36,6.20
2012,09,12,03,37,6.20
2012,09,12,03,38,6.20
2012,09,12,03,39,6.20
2012,09,12,03,40,6.20
2012,09,12,03,41,6.20
2012,09,12,03,42,6.20
2012,09,12,03,43,6.20
2012,09,12,03,44,6.20
2012,09,12,03,45,6.20
2012,09,12,03,46,6.20
2012,09,12,03,47,6.20
2012,09,12,03,48,6.20
2012,09,12,03,49,6.20
2012,09,12,03,50,6.20
2012,09,12,03,51,6.20
2012,09,12,03,52,6.10
2012,09,12,03,53,6.10
2012,09,12,03,54,6.10
2012,09,12,03,55,6.10
2012,09,12,03,56,6.10
2012,09,12,03,57,6.10
2012,09,12,03,58,6.10
2012,09,12,03,59,6.20
2012,09,12,04,00,6.30
2012,09,12,04,01,6.50
2012,09,12,04,02,6.60
2012,09,12,04,03,6.80
2012,09,12,04,04,6.90
2012,09,12,04,05,7.00
2012,09,12,04,06,7.10
2012,09,12,04,07,7.20
2012,09,12,04,08,7.30
2012,09,12,04,09,7.40
2012,09,12,04,10,7.60
2012,09,12,04,11,7.80
2012,09,12,04,12,7.90
2012,09,12,04,13,8.10
2012,09,12,04,14,8.20
2012,09,12,04,15,8.40
2012,09,12,04,16,8.50
2012,09,12,04,17,8.70
2012,09,12,04,18,8.80
2012,09,12,04,19,8.90
2012,09,12,04,20,9.10
2012,09,12,04,21,9.30
2012,09,12,04,22,9.40
2012,09,12,04,23,9.50
2012,09,12,04,24,9.70
2012,09,12,04,25,9.70
2012,09,12,04,26,9.90
2012,09,12,04,27,10.00
2012,09,12,04,28,10.10
2012,09,12,04,29,10.20
2012,09,12,04,30,10.30
2012,09,12,04,31,10.30
2012,09,12,04,32,10.40
2012,09,12,04,33,10.50
2012,09,12,04,34,10.60
2012,09,12,04,35,10.70
2012,09,12,04,36,10.80
2012,09,12,04,37,10.80
2012,09,12,04,38,10.90
2012,09,12,04,39,10.90
2012,09,12,04,40,11.00
2012,09,12,04,41,11.10
2012,09,12,04,42,11.10
2012,09,12,04,43,11.10
2012,09,12,04,44,11.10
2012,09,12,04,45,11.10
2012,09,12,04,46,11.10
2012,09,12,04,47,11.10
2012,09,12,04,48,11.10
2012,09,12,04,49,11.10
2012,09,12,04,50,11.10
2012,09,12,04,51,11.20
2012,09,12,04,52,11.20
2012,09,12,04,53,11.20
2012,09,12,04,54,11.30
2012,09,12,04,55,11.30
2012,09,12,04,56,11.30
2012,09,12,04,57,11.40
2012,09,12,04,58,11.40
2012,09,12,04,59,11.40
2012,09,12,05,00,11.40
2012,09,12,05,01,11.30
2012,09,12,05,02,11.30
2012,09,12,05,03,11.30
2012,09,12,05,04,11.20
2012,09,12,05,05,11.20
2012,09,12,05,06,11.30
2012,09,12,05,07,11.30
2012,09,12,05,08,11.30
2012,09,12,05,09,11.30
2012,09,12,05,10,11.40
2012,09,12,05,11,11.40
2012,09,12,05,12,11.40
2012,09,12,05,13,11.40
2012,09,12,05,14,11.40
2012,09,12,05,15,11.40
2012,09,12,05,16,11.40
2012,09,12,05,17,11.40
2012,09,12,05,18,11.40
2012,09,12,05,19,11.40
2012,09,12,05,20,11.40
2012,09,12,05,21,11.40
2012,09,12,05,22,11.40
2012,09,12,05,23,11.40
2012,09,12,05,24,11.40
2012,09,12,05,25,11.40
2012,09,12,05,26,11.30
2012,09,12,05,27,11.30
2012,09,12,05,28,11.30
2012,09,12,05,29,11.30
2012,09,12,05,30,11.20
2012,09,12,05,31,11.20
2012,09,12,05,32,11.20
2012,09,12,05,33,11.20
2012,09,12,05,34,11.20
2012,09,12,05,35,11.10
2012,09,12,05,36,11.10
2012,09,12,05,37,11.10
2012,09,12,05,38,11.10
2012,09,12,05,39,11.10
2012,09,12,05,40,11.10
2012,09,12,05,41,11.10
2012,09,12,05,42,11.10
2012,09,12,05,43,11.00
2012,09,12,05,44,10.90
2012,09,12,05,45,10.90
2012,09,12,05,46,10.90
2012,09,12,05,47,10.90
2012,09,12,05,48,10.90
2012,09,12,05,49,10.90
2012,09,12,05,50,10.90
2012,09,12,05,51,10.90
2012,09,12,05,52,10.90
2012,09,12,05,53,10.90
2012,09,12,05,54,10.90
2012,09,12,05,55,10.90
2012,09,12,05,56,10.90
2012,09,12,05,57,10.80
2012,09,12,05,58,10.80
2012,09,12,05,59,10.80
2012,09,12,06,00,10.80
2012,09,12,06,01,10.80
2012,09,12,06,02,10.70
2012,09,12,06,03,10.70
2012,09,12,06,04,10.70
2012,09,12,06,05,10.70
2012,09,12,06,06,10.70
2012,09,12,06,07,10.70
2012,09,12,06,08,10.60
2012,09,12,06,09,10.70
2012,09,12,06,10,10.70
2012,09,12,06,11,10.70
2012,09,12,06,12,10.70
2012,09,12,06,13,10.70
2012,09,12,06,14,10.70
2012,09,12,06,15,10.70
2012,09,12,06,16,10.70
2012,09,12,06,17,10.70
2012,09,12,06,18,10.70
2012,09,12,06,19,10.70
2012,09,12,06,20,10.70
2012,09,12,06,21,10.70
2012,09,12,06,22,10.70
2012,09,12,06,23,10.70
2012,09,12,06,24,10.70
2012,09,12,06,25,10.70
2012,09,12,06,26,10.60
2012,09,12,06,27,10.60
2012,09,12,06,28,10.60
2012,09,12,06,29,10.60
2012,09,12,06,30,10.50
2012,09,12,06,31,10.40
2012,09,12,06,32,10.40
2012,09,12,06,33,10.40
2012,09,12,06,34,10.40
2012,09,12,06,35,10.40
2012,09,12,06,36,10.40
2012,09,12,06,37,10.30
2012,09,12,06,38,10.30
2012,09,12,06,39,10.30
2012,09,12,06,40,10.30
2012,09,12,06,41,10.30
2012,09,12,06,42,10.20
2012,09,12,06,43,10.20
2012,09,12,06,44,10.20
2012,09,12,06,45,10.20
2012,09,12,06,46,10.10
2012,09,12,06,47,10.10
2012,09,12,06,48,10.10
2012,09,12,06,49,10.10
2012,09,12,06,50,10.10
2012,09,12,06,51,10.00
2012,09,12,06,52,9.90
2012,09,12,06,53,9.90
2012,09,12,06,54,9.90
2012,09,12,06,55,9.90
2012,09,12,06,56,9.90
2012,09,12,06,57,9.80
2012,09,12,06,58,9.80
2012,09,12,06,59,9.80
2012,09,12,07,00,9.80
2012,09,12,07,01,9.70
2012,09,12,07,02,9.70
2012,09,12,07,03,9.70
2012,09,12,07,04,9.70
2012,09,12,07,05,9.70
2012,09,12,07,06,9.70
2012,09,12,07,07,9.70
2012,09,12,07,08,9.70
2012,09,12,07,09,9.70
2012,09,12,07,10,9.70
2012,09,12,07,11,9.80
2012,09,12,07,12,10.00
2012,09,12,07,13,10.10
2012,09,12,07,14,10.30
2012,09,12,07,15,10.40
2012,09,12,07,16,10.60
2012,09,12,07,17,10.70
2012,09,12,07,18,10.80
2012,09,12,07,19,10.90
2012,09,12,07,20,10.90
2012,09,12,07,21,11.10
2012,09,12,07,22,11.10
2012,09,12,07,23,11.20
2012,09,12,07,24,11.20
2012,09,12,07,25,11.30
2012,09,12,07,26,11.30
2012,09,12,07,27,11.40
2012,09,12,07,28,11.50
2012,09,12,07,29,11.60
2012,09,12,07,30,11.60
2012,09,12,07,31,11.70
2012,09,12,07,32,11.80
2012,09,12,07,33,11.80
2012,09,12,07,34,11.80
2012,09,12,07,35,11.90
2012,09,12,07,36,11.90
2012,09,12,07,37,12.00
2012,09,12,07,38,12.10
2012,09,12,07,39,12.10
2012,09,12,07,40,12.20
2012,09,12,07,41,12.30
2012,09,12,07,42,12.30
2012,09,12,07,43,12.30
2012,09,12,07,44,12.40
2012,09,12,07,45,12.40
2012,09,12,07,46,12.50
2012,09,12,07,47,12.50
2012,09,12,07,48,12.50
2012,09,12,07,49,12.50
2012,09,12,07,50,12.60
2012,09,12,07,51,12.60
2012,09,12,07,52,12.60
2012,09,12,07,53,12.70
2012,09,12,07,54,12.70
2012,09,12,07,55,12.70
2012,09,12,07,56,12.80
2012,09,12,07,57,12.80
2012,09,12,07,58,12.80
2012,09,12,07,59,12.80
2012,09,12,08,00,12.80
2012,09,12,08,01,12.80
2012,09,12,08,02,12.80
2012,09,12,08,03,12.80
2012,09,12,08,04,12.80
2012,09,12,08,05,12.80
2012,09,12,08,06,12.80
2012,09,12,08,07,12.90
2012,09,12,08,08,12.90
2012,09,12,08,09,12.90
2012,09,12,08,10,12.90
2012,09,12,08,11,12.90
2012,09,12,08,12,13.00
2012,09,12,08,13,13.10
2012,09,12,08,14,13.10
2012,09,12,08,15,13.10
2012,09,12,08,16,13.20
2012,09,12,08,17,13.20
2012,09,12,08,18,13.20
2012,09,12,08,19,13.20
2012,09,12,08,20,13.20
2012,09,12,08,21,13.20
2012,09,12,08,22,13.20
2012,09,12,08,23,13.20
2012,09,12,08,24,13.20
2012,09,12,08,25,13.20
2012,09,12,08,26,13.30
2012,09,12,08,27,13.30
2012,09,12,08,28,13.30
2012,09,12,08,29,13.30
2012,09,12,08,30,13.30
2012,09,12,08,31,13.30
2012,09,12,08,32,13.40
2012,09,12,08,33,13.50
2012,09,12,08,34,13.50
2012,09,12,08,35,13.50
2012,09,12,08,36,13.50
2012,09,12,08,37,13.50
2012,09,12,08,38,13.50
2012,09,12,08,39,13.50
2012,09,12,08,40,13.50
2012,09,12,08,41,13.50
2012,09,12,08,42,13.60
2012,09,12,08,43,13.60
2012,09,12,08,44,13.60
2012,09,12,08,45,13.70
2012,09,12,08,46,13.70
2012,09,12,08,47,13.70
2012,09,12,08,48,13.70
2012,09,12,08,49,13.70
2012,09,12,08,50,13.70
2012,09,12,08,51,13.80
2012,09,12,08,52,13.80
2012,09,12,08,53,13.80
2012,09,12,08,54,13.80
2012,09,12,08,55,13.80
2012,09,12,08,56,13.70
2012,09,12,08,57,13.70
2012,09,12,08,58,13.70
2012,09,12,08,59,13.70
2012,09,12,09,00,13.70
2012,09,12,09,01,13.70
2012,09,12,09,02,13.70
2012,09,12,09,03,13.70
2012,09,12,09,04,13.70
2012,09,12,09,05,13.70
2012,09,12,09,06,13.70
2012,09,12,09,07,13.70
2012,09,12,09,08,13.60
2012,09,12,09,09,13.60
2012,09,12,09,10,13.70
2012,09,12,09,11,13.70
2012,09,12,09,12,13.70
2012,09,12,09,13,13.70
2012,09,12,09,14,13.60
2012,09,12,09,15,13.50
2012,09,12,09,16,13.50
2012,09,12,09,17,13.60
2012,09,12,09,18,13.60
2012,09,12,09,19,13.60
2012,09,12,09,20,13.60
2012,09,12,09,21,13.60
2012,09,12,09,22,13.50
2012,09,12,09,23,13.50
2012,09,12,09,24,13.60
2012,09,12,09,25,13.60
2012,09,12,09,26,13.60
2012,09,12,09,27,13.70
2012,09,12,09,28,13.70
2012,09,12,09,29,13.70
2012,09,12,09,30,13.70
2012,09,12,09,31,13.80
2012,09,12,09,32,13.90
2012,09,12,09,33,14.00
2012,09,12,09,34,14.00
2012,09,12,09,35,14.00
2012,09,12,09,36,14.00
2012,09,12,09,37,14.20
2012,09,12,09,38,14.20
2012,09,12,09,39,14.20
2012,09,12,09,40,14.20
2012,09,12,09,41,14.10
2012,09,12,09,42,14.10
2012,09,12,09,43,14.10
2012,09,12,09,44,14.10
2012,09,12,09,45,14.20
2012,09,12,09,46,14.20
2012,09,12,09,47,14.20
2012,09,12,09,48,14.20
2012,09,12,09,49,14.20
2012,09,12,09,50,14.20
2012,09,12,09,51,14.20
2012,09,12,09,52,14.20
2012,09,12,09,53,14.20
2012,09,12,09,54,14.30
2012,09,12,09,55,14.40
2012,09,12,09,56,14.50
2012,09,12,09,57,14.50
2012,09,12,09,58,14.60
2012,09,12,09,59,14.60
2012,09,12,10,00,14.70
2012,09,12,10,01,14.70
2012,09,12,10,02,14.80
2012,09,12,10,03,14.90
2012,09,12,10,04,14.90
2012,09,12,10,05,14.90
2012,09,12,10,06,14.90
2012,09,12,10,07,15.00
2012,09,12,10,08,15.00
2012,09,12,10,09,15.00
2012,09,12,10,10,15.10
2012,09,12,10,11,15.10
2012,09,12,10,12,15.20
2012,09,12,10,13,15.20
2012,09,12,10,14,15.10
2012,09,12,10,15,15.10
2012,09,12,10,16,15.10
2012,09,12,10,17,15.20
2012,09,12,10,18,15.20
2012,09,12,10,19,15.20
2012,09,12,10,20,15.30
2012,09,12,10,21,15.30
2012,09,12,10,22,15.30
2012,09,12,10,23,15.30
2012,09,12,10,24,15.20
2012,09,12,10,25,15.20
2012,09,12,10,26,15.20
2012,09,12,10,27,15.30
2012,09,12,10,28,15.30
2012,09,12,10,29,15.30
2012,09,12,10,30,15.20
2012,09,12,10,31,15.20
2012,09,12,10,32,15.20
2012,09,12,10,33,15.30
2012,09,12,10,34,15.30
2012,09,12,10,35,15.30
2012,09,12,10,36,15.30
2012,09,12,10,37,15.30
2012,09,12,10,38,15.30
2012,09,12,10,39,15.30
2012,09,12,10,40,15.30
2012,09,12,10,41,15.30
2012,09,12,10,42,15.40
2012,09,12,10,43,15.40
2012,09,12,10,44,15.50
2012,09,12,10,45,15.60
2012,09,12,10,46,15.70
2012,09,12,10,47,15.80
2012,09,12,10,48,15.80
2012,09,12,10,49,15.80
2012,09,12,10,50,15.80
2012,09,12,10,51,15.70
2012,09,12,10,52,15.70
2012,09,12,10,53,15.70
2012,09,12,10,54,15.60
2012,09,12,10,55,15.60
2012,09,12,10,56,15.60
2012,09,12,10,57,15.60
2012,09,12,10,58,15.60
2012,09,12,10,59,15.60
2012,09,12,11,00,15.60
2012,09,12,11,01,15.60
2012,09,12,11,02,15.70
2012,09,12,11,03,15.70
2012,09,12,11,04,15.80
2012,09,12,11,05,15.80
2012,09,12,11,06,15.80
2012,09,12,11,07,15.80
2012,09,12,11,08,15.80
2012,09,12,11,09,15.80
2012,09,12,11,10,15.80
2012,09,12,11,11,15.80
2012,09,12,11,12,15.80
2012,09,12,11,13,15.80
2012,09,12,11,14,15.80
2012,09,12,11,15,15.80
2012,09,12,11,16,15.90
2012,09,12,11,17,15.90
2012,09,12,11,18,15.90
2012,09,12,11,19,15.90
2012,09,12,11,20,16.00
2012,09,12,11,21,16.10
2012,09,12,11,22,16.10
2012,09,12,11,23,16.10
2012,09,12,11,24,16.20
2012,09,12,11,25,16.30
2012,09,12,11,26,16.40
2012,09,12,11,27,16.40
2012,09,12,11,28,16.40
2012,09,12,11,29,16.40
2012,09,12,11,30,16.30
2012,09,12,11,31,16.20
2012,09,12,11,32,16.20
2012,09,12,11,33,16.20
2012,09,12,11,34,16.30
2012,09,12,11,35,16.40
2012,09,12,11,36,16.40
2012,09,12,11,37,16.20
2012,09,12,11,38,16.10
2012,09,12,11,39,15.90
2012,09,12,11,40,15.90
2012,09,12,11,41,15.90
2012,09,12,11,42,15.90
2012,09,12,11,43,16.00
2012,09,12,11,44,16.10
2012,09,12,11,45,16.10
2012,09,12,11,46,16.00
2012,09,12,11,47,15.80
2012,09,12,11,48,15.70
2012,09,12,11,49,15.60
2012,09,12,11,50,15.60
2012,09,12,11,51,15.60
2012,09,12,11,52,15.70
2012,09,12,11,53,15.80
2012,09,12,11,54,15.80
2012,09,12,11,55,15.80
2012,09,12,11,56,16.00
2012,09,12,11,57,16.10
2012,09,12,11,58,16.10
2012,09,12,11,59,16.10
2012,09,12,12,00,16.10
2012,09,12,12,01,16.20
2012,09,12,12,02,16.30
2012,09,12,12,03,16.40
2012,09,12,12,04,16.60
2012,09,12,12,05,16.60
2012,09,12,12,06,16.60
2012,09,12,12,07,16.60
2012,09,12,12,08,16.60
2012,09,12,12,09,16.60
2012,09,12,12,10,16.60
2012,09,12,12,11,16.60
2012,09,12,12,12,16.60
2012,09,12,12,13,16.70
2012,09,12,12,14,16.70
2012,09,12,12,15,16.80
2012,09,12,12,16,16.90
2012,09,12,12,17,17.00
2012,09,12,12,18,16.90
2012,09,12,12,19,16.90
2012,09,12,12,20,16.90
2012,09,12,12,21,16.80
2012,09,12,12,22,16.70
2012,09,12,12,23,16.70
2012,09,12,12,24,16.80
2012,09,12,12,25,16.90
2012,09,12,12,26,16.90
2012,09,12,12,27,17.00
2012,09,12,12,28,17.10
2012,09,12,12,29,17.10
2012,09,12,12,30,17.20
2012,09,12,12,31,17.30
2012,09,12,12,32,17.30
2012,09,12,12,33,17.30
2012,09,12,12,34,17.30
2012,09,12,12,35,17.30
2012,09,12,12,36,17.30
2012,09,12,12,37,17.10
2012,09,12,12,38,17.10
2012,09,12,12,39,17.00
2012,09,12,12,40,17.00
2012,09,12,12,41,16.90
2012,09,12,12,42,16.90
2012,09,12,12,43,16.90
2012,09,12,12,44,16.90
2012,09,12,12,45,17.00
2012,09,12,12,46,17.00
2012,09,12,12,47,17.00
2012,09,12,12,48,17.10
2012,09,12,12,49,17.20
2012,09,12,12,50,17.20
2012,09,12,12,51,17.20
2012,09,12,12,52,17.30
2012,09,12,12,53,17.30
2012,09,12,12,54,17.30
2012,09,12,12,55,17.40
2012,09,12,12,56,17.40
2012,09,12,12,57,17.50
2012,09,12,12,58,17.60
2012,09,12,12,59,17.70
2012,09,12,13,00,17.80
2012,09,12,13,01,17.80
2012,09,12,13,02,17.80
2012,09,12,13,03,17.80
2012,09,12,13,04,17.80
2012,09,12,13,05,17.80
2012,09,12,13,06,17.80
2012,09,12,13,07,17.80
2012,09,12,13,08,17.80
2012,09,12,13,09,17.70
2012,09,12,13,10,17.70
2012,09,12,13,11,17.70
2012,09,12,13,12,17.50
2012,09,12,13,13,17.40
2012,09,12,13,14,17.30
2012,09,12,13,15,17.20
2012,09,12,13,16,17.20
2012,09,12,13,17,17.10
2012,09,12,13,18,17.00
2012,09,12,13,19,17.00
2012,09,12,13,20,17.00
2012,09,12,13,21,17.00
2012,09,12,13,22,17.10
2012,09,12,13,23,17.20
2012,09,12,13,24,17.30
2012,09,12,13,25,17.30
2012,09,12,13,26,17.30
2012,09,12,13,27,17.30
2012,09,12,13,28,17.30
2012,09,12,13,29,17.30
2012,09,12,13,30,17.30
2012,09,12,13,31,17.20
2012,09,12,13,32,17.20
2012,09,12,13,33,17.20
2012,09,12,13,34,17.30
2012,09,12,13,35,17.30
2012,09,12,13,36,17.40
2012,09,12,13,37,17.50
2012,09,12,13,38,17.60
2012,09,12,13,39,17.70
2012,09,12,13,40,17.70
2012,09,12,13,41,17.80
2012,09,12,13,42,17.80
2012,09,12,13,43,17.80
2012,09,12,13,44,17.80
2012,09,12,13,45,17.80
2012,09,12,13,46,17.90
2012,09,12,13,47,17.90
2012,09,12,13,48,17.90
2012,09,12,13,49,17.90
2012,09,12,13,50,17.90
2012,09,12,13,51,17.90
2012,09,12,13,52,18.00
2012,09,12,13,53,18.00
2012,09,12,13,54,17.90
2012,09,12,13,55,17.90
2012,09,12,13,56,17.80
2012,09,12,13,57,17.80
2012,09,12,13,58,17.80
2012,09,12,13,59,17.80
2012,09,12,14,00,17.80
2012,09,12,14,01,17.80
2012,09,12,14,02,17.80
2012,09,12,14,03,17.80
2012,09,12,14,04,17.80
2012,09,12,14,05,17.70
2012,09,12,14,06,17.70
2012,09,12,14,07,17.70
2012,09,12,14,08,17.70
2012,09,12,14,09,17.70
2012,09,12,14,10,17.70
2012,09,12,14,11,17.70
2012,09,12,14,12,17.70
2012,09,12,14,13,17.70
2012,09,12,14,14,17.80
2012,09,12,14,15,17.90
2012,09,12,14,16,17.90
2012,09,12,14,17,17.90
2012,09,12,14,18,17.90
2012,09,12,14,19,17.90
2012,09,12,14,20,17.90
2012,09,12,14,21,17.90
2012,09,12,14,22,18.00
2012,09,12,14,23,18.10
2012,09,12,14,24,18.10
2012,09,12,14,25,18.10
2012,09,12,14,26,18.20
2012,09,12,14,27,18.20
2012,09,12,14,28,18.30
2012,09,12,14,29,18.30
2012,09,12,14,30,18.30
2012,09,12,14,31,18.20
2012,09,12,14,32,18.20
2012,09,12,14,33,18.20
2012,09,12,14,34,18.20
2012,09,12,14,35,18.20
2012,09,12,14,36,18.20
2012,09,12,14,37,18.30
2012,09,12,14,38,18.40
2012,09,12,14,39,18.50
2012,09,12,14,40,18.50
2012,09,12,14,41,18.50
2012,09,12,14,42,18.30
2012,09,12,14,43,18.30
2012,09,12,14,44,18.20
2012,09,12,14,45,18.20
2012,09,12,14,46,18.20
2012,09,12,14,47,18.20
2012,09,12,14,48,18.20
2012,09,12,14,49,18.20
2012,09,12,14,50,18.20
2012,09,12,14,51,18.20
2012,09,12,14,52,18.20
2012,09,12,14,53,18.20
2012,09,12,14,54,18.20
2012,09,12,14,55,18.20
2012,09,12,14,56,18.20
2012,09,12,14,57,18.30
2012,09,12,14,58,18.30
2012,09,12,14,59,18.40
2012,09,12,15,00,18.30
2012,09,12,15,01,18.30
2012,09,12,15,02,18.30
2012,09,12,15,03,18.30
2012,09,12,15,04,18.30
2012,09,12,15,05,18.30
2012,09,12,15,06,18.30
2012,09,12,15,07,18.30
2012,09,12,15,08,18.30
2012,09,12,15,09,18.30
2012,09,12,15,10,18.30
2012,09,12,15,11,18.30
2012,09,12,15,12,18.30
2012,09,12,15,13,18.20
2012,09,12,15,14,18.20
2012,09,12,15,15,18.20
2012,09,12,15,16,18.20
2012,09,12,15,17,18.20
2012,09,12,15,18,18.20
2012,09,12,15,19,18.20
2012,09,12,15,20,18.30
2012,09,12,15,21,18.40
2012,09,12,15,22,18.40
2012,09,12,15,23,18.40
2012,09,12,15,24,18.40
2012,09,12,15,25,18.40
2012,09,12,15,26,18.40
2012,09,12,15,27,18.40
2012,09,12,15,28,18.30
2012,09,12,15,29,18.30
2012,09,12,15,30,18.40
2012,09,12,15,31,18.40
2012,09,12,15,32,18.40
2012,09,12,15,33,18.50
2012,09,12,15,34,18.60
2012,09,12,15,35,18.60
2012,09,12,15,36,18.60
2012,09,12,15,37,18.70
2012,09,12,15,38,18.70
2012,09,12,15,39,18.80
2012,09,12,15,40,18.80
2012,09,12,15,41,18.90
2012,09,12,15,42,18.90
2012,09,12,15,43,18.90
2012,09,12,15,44,19.00
2012,09,12,15,45,19.10
2012,09,12,15,46,19.10
2012,09,12,15,47,19.10
2012,09,12,15,48,19.10
2012,09,12,15,49,19.00
2012,09,12,15,50,18.90
2012,09,12,15,51,18.90
2012,09,12,15,52,18.90
2012,09,12,15,53,18.90
2012,09,12,15,54,18.90
2012,09,12,15,55,18.90
2012,09,12,15,56,18.80
2012,09,12,15,57,18.70
2012,09,12,15,58,18.60
2012,09,12,15,59,18.60
2012,09,12,16,00,18.60
2012,09,12,16,01,18.60
2012,09,12,16,02,18.70
2012,09,12,16,03,18.70
2012,09,12,16,04,18.80
2012,09,12,16,05,18.80
2012,09,12,16,06,18.90
2012,09,12,16,07,18.90
2012,09,12,16,08,18.90
2012,09,12,16,09,18.90
2012,09,12,16,10,18.90
2012,09,12,16,11,18.80
2012,09,12,16,12,18.80
2012,09,12,16,13,18.80
2012,09,12,16,14,18.80
2012,09,12,16,15,18.80
2012,09,12,16,16,18.70
2012,09,12,16,17,18.70
2012,09,12,16,18,18.70
2012,09,12,16,19,18.80
2012,09,12,16,20,18.90
2012,09,12,16,21,18.90
2012,09,12,16,22,18.90
2012,09,12,16,23,19.00
2012,09,12,16,24,19.10
2012,09,12,16,25,19.10
2012,09,12,16,26,19.00
2012,09,12,16,27,18.90
2012,09,12,16,28,18.90
2012,09,12,16,29,18.90
2012,09,12,16,30,18.80
2012,09,12,16,31,18.70
2012,09,12,16,32,18.70
2012,09,12,16,33,18.70
2012,09,12,16,34,18.60
2012,09,12,16,35,18.60
2012,09,12,16,36,18.70
2012,09,12,16,37,18.60
2012,09,12,16,38,18.60
2012,09,12,16,39,18.70
2012,09,12,16,40,18.70
2012,09,12,16,41,18.80
2012,09,12,16,42,18.80
2012,09,12,16,43,18.90
2012,09,12,16,44,18.90
2012,09,12,16,45,18.90
2012,09,12,16,46,18.90
2012,09,12,16,47,18.90
2012,09,12,16,48,18.90
2012,09,12,16,49,19.00
2012,09,12,16,50,19.10
2012,09,12,16,51,19.10
2012,09,12,16,52,19.10
2012,09,12,16,53,19.10
2012,09,12,16,54,19.10
2012,09,12,16,55,19.10
2012,09,12,16,56,19.10
2012,09,12,16,57,19.10
2012,09,12,16,58,19.10
2012,09,12,16,59,19.10
2012,09,12,17,00,19.10
2012,09,12,17,01,19.00
2012,09,12,17,02,19.00
2012,09,12,17,03,19.10
2012,09,12,17,04,19.00
2012,09,12,17,05,18.90
2012,09,12,17,06,19.00
2012,09,12,17,07,19.10
2012,09,12,17,08,19.00
2012,09,12,17,09,18.90
2012,09,12,17,10,18.90
2012,09,12,17,11,18.90
2012,09,12,17,12,18.80
2012,09,12,17,13,18.70
2012,09,12,17,14,18.60
2012,09,12,17,15,18.60
2012,09,12,17,16,18.50
2012,09,12,17,17,18.50
2012,09,12,17,18,18.40
2012,09,12,17,19,18.40
2012,09,12,17,20,18.40
2012,09,12,17,21,18.40
2012,09,12,17,22,18.50
2012,09,12,17,23,18.50
2012,09,12,17,24,18.50
2012,09,12,17,25,18.50
2012,09,12,17,26,18.50
2012,09,12,17,27,18.50
2012,09,12,17,28,18.50
2012,09,12,17,29,18.50
2012,09,12,17,30,18.50
2012,09,12,17,31,18.40